This demonstration page uses our WeatherBlox Daily Observations layout. Learn more.

Left ArrowRight Arrow

30.21309, -93.2044

Hourly Observations for August 15, 2020

Temp ( °F °C ) Dew Point ( °F °C ) Humidity (%) Winds ( mph kmh ) Pressure ( in mb ) Visibility ( mi km ) Precip ( " mm )
12:15 am 00:15 Clear 84 28.9 78 25.5 82 82 SW 5 7 29.93 1014 10 16 0.00 0.00
12:35 am 00:35 Clear 84 28.9 78 25.5 82 82 SW 6 9 29.94 1014 10 16 0.00 0.00
12:55 am 00:55 Clear 84 28.8 78 25.4 82 82 SW 6 9 29.94 1014 10 16 0.00 0.00
1:15 am 01:15 Clear 83 28.6 78 25.4 83 83 SW 6 9 29.94 1014 10 16 0.00 0.00
1:35 am 01:35 Clear 83 28.5 78 25.4 83 83 SW 6 9 29.94 1014 10 16 0.00 0.00
1:55 am 01:55 Clear 83 28.5 78 25.4 83 83 SW 6 9 29.94 1014 10 16 0.00 0.00
2:15 am 02:15 Clear 83 28.3 78 25.4 84 84 SW 6 9 29.93 1014 10 16 0.00 0.00
2:35 am 02:35 Clear 83 28.2 78 25.4 85 85 SW 5 7 29.93 1014 10 16 0.00 0.00
2:55 am 02:55 Clear 83 28.2 78 25.4 85 85 SW 7 11 29.93 1014 10 16 0.00 0.00
3:15 am 03:15 Clear 83 28.2 78 25.5 85 85 SW 5 7 29.93 1014 10 16 0.00 0.00
3:35 am 03:35 Clear 83 28.1 78 25.4 85 85 SSW 5 7 29.93 1014 10 16 0.00 0.00
3:55 am 03:55 Clear 82 27.8 78 25.3 86 86 SW 5 7 29.93 1014 10 16 0.00 0.00
4:15 am 04:15 Clear 82 27.5 77 25.2 87 87 SSW 3 6 29.92 1013 10 16 0.00 0.00
4:35 am 04:35 Clear 82 27.6 78 25.3 87 87 SW 3 6 29.92 1013 10 16 0.00 0.00
4:55 am 04:55 Clear 82 27.5 78 25.3 88 88 SW 5 7 29.92 1013 10 16 0.00 0.00
5:15 am 05:15 Clear 82 27.5 78 25.4 88 88 SW 5 7 29.91 1013 10 16 0.00 0.00
5:35 am 05:35 Clear 82 27.6 78 25.3 87 87 SW 5 7 29.92 1013 10 16 0.00 0.00
6:00 am 06:00 Mostly Clear 81 27 77 25 89 89 SW 5 7 29.92 1013 10 16 0.00 0.00
6:45 am 06:45 Partly Cloudy 81 27 77 25 89 89 SW 3 6 29.93 1014 10 16 0.00 0.00
7:45 am 07:45 Partly Cloudy 82 28 79 26 89 89 W 5 7 29.95 1014 10 16 0.00 0.00
8:45 am 08:45 Partly Cloudy 86 30 79 26 79 79 WNW 10 17 29.97 1015 10 16 0.00 0.00
9:45 am 09:45 Partly Cloudy 88 31 77 25 70 70 W 12 19 29.98 1015 10 16 0.00 0.00
10:45 am 10:45 Partly Cloudy 90 32 75 24 63 63 W 12 19 29.98 1015 10 16 0.00 0.00
11:45 am 11:45 Partly Cloudy 91 33 77 25 63 63 WNW 7 11 29.97 1015 10 16 0.00 0.00
12:45 pm 12:45 Partly Cloudy 91 33 73 23 56 56 WNW 8 13 29.96 1015 10 16 0.00 0.00
1:55 pm 13:55 Mostly Cloudy 93 34 75 24 56 56 Calm 29.94 1014 10 16 0.00 0.00
2:52 pm 14:52 Mostly Cloudy 95 35 73 23 50 50 Calm 29.93 1014 10 16 0.00 0.00
3:55 pm 15:55 Mostly Cloudy 95 35 75 24 53 53 N 8 13 29.91 1013 10 16 0.00 0.00
4:55 pm 16:55 Partly Cloudy 95 35 73 23 50 50 SSW 8 13 29.90 1012 10 16 0.00 0.00
5:45 pm 17:45 Partly Cloudy 93 34 77 25 59 59 SSW 9 15 29.89 1012 10 16 0.00 0.00
6:54 pm 18:54 Mostly Sunny 91 33 81 27 71 71 SSW 10 17 29.90 1012 10 16 0.00 0.00
7:54 pm 19:54 Mostly Clear 90 32 81 27 75 75 S 8 13 29.93 1014 10 16 0.00 0.00
8:21 pm 20:21 Mostly Cloudy with Thunderstorms 88 31 81 27 79 79 SSW 8 13 29.92 1013 10 16 0.00 0.00
8:50 pm 20:50 Mostly Cloudy with Thunderstorms 84 29 81 27 89 89 SE 6 9 29.95 1014 10 16 0.00 0.00
9:52 pm 21:52 Mostly Cloudy 81 27 77 25 89 89 ENE 5 7 29.97 1015 10 16 0.00 0.00
10:15 pm 22:15 Partly Cloudy 79 26.2 77 24.9 93 93 SSE 3 6 29.96 1015 10 16 0.00 0.00
10:35 pm 22:35 Clear 79 26.2 77 25.1 94 94 Calm 29.96 1015 10 16 0.00 0.00
10:55 pm 22:55 Partly Cloudy 80 26.7 77 25.1 91 91 Calm 29.97 1015 10 16 0.00 0.00
11:15 pm 23:15 Clear 83 28.5 78 25.5 84 84 Calm 29.98 1015 10 16 0.00 0.00
11:35 pm 23:35 Clear 81 27.3 77 25 87 87 NNW 3 6 29.97 1015 10 16 0.00 0.00
11:55 pm 23:55 Clear 80 26.6 77 24.9 90 90 Calm 29.98 1015 10 16 0.00 0.00

Powered by AerisWeather